Weather History for Glendive, MT

Change the Weather History Date:

Saturday, December 24, 2011

  Actual Average Record
Temperature  
Mean Temperature 35 °F -  
Max Temperature 44 °F 25 °F 51 °F (1999)
Min Temperature 26 °F 7 °F -22 °F (1996)
Degree Days  
Heating Degree Days 30    
Moisture  
Dew Point 20 °F    
Average Humidity 53    
Maximum Humidity 65    
Minimum Humidity 39    
Precipitation  
Precipitation 0.00 in - - ()
Sea Level Pressure  
Sea Level Pressure 30.18 in    
Wind  
Wind Speed 12 mph (WSW)    
Max Wind Speed 23 mph    
Max Gust Speed 30 mph    
Visibility 10 miles    
Events      
Averages and records for this station are not official NWS values.
T = Trace of Precipitation, MM = Missing Value Source: NWS Daily Summary

Daily Weather History Graph

Daily Weather History Graph

Search for Another Location

Airport:

Trip Planner

Search our weather history database for the weather conditions in past years. The results will help you decide how hot, cold, wet, or windy it might be!

Date:

Astronomy

Dec. 24, 2011 Rise Set
Actual Time 7:43 AM MST 4:13 PM MST
Civil Twilight 7:08 AM MST 4:49 PM MST
Nautical Twilight 6:29 AM MST 5:28 PM MST
Astronomical Twilight 5:52 AM MST 6:05 PM MST
Moon 7:34 AM MST (12/24) 4:30 PM MST (12/24)
Length of Visible Light 9h 40m
Length of Day
8h 29m
New Moon, 0% of the Moon is Illuminated
Dec 24
New Moon
Dec 31
First Quarter
Jan 9
Full
Jan 16
Last Quarter
Jan 23
New

Hourly Weather History & Observations

Time (MST) Temp. Windchill Dew Point Humidity Pressure Visibility Wind Dir Wind Speed Gust Speed Precip Events Conditions
12:15 AM 28.4 °F 20.4 °F 15.8 °F 59% 30.14 in 10.0 mi South 8.1 mph - N/A   Clear
12:35 AM 28.4 °F 19.1 °F 15.8 °F 59% 30.14 in 10.0 mi South 10.4 mph - N/A   Clear
1:15 AM 30.2 °F 20.2 °F 15.8 °F 55% 30.13 in 10.0 mi SW 12.7 mph - N/A   Clear
1:35 AM 33.8 °F 24.8 °F 17.6 °F 52% 30.14 in 10.0 mi WSW 12.7 mph - N/A   Clear
1:55 AM 33.8 °F 24.3 °F 17.6 °F 52% 30.14 in 10.0 mi SW 13.8 mph - N/A   Clear
2:15 AM 32.0 °F 23.0 °F 15.8 °F 51% 30.14 in 10.0 mi WSW 11.5 mph - N/A   Clear
2:35 AM 30.2 °F 21.3 °F 15.8 °F 55% 30.15 in 10.0 mi WSW 10.4 mph - N/A   Clear
2:55 AM 28.4 °F 18.5 °F 15.8 °F 59% 30.15 in 10.0 mi SSW 11.5 mph - N/A   Clear
3:15 AM 26.6 °F 16.2 °F 15.8 °F 64% 30.15 in 10.0 mi SSW 11.5 mph - N/A   Clear
3:35 AM 26.6 °F 17.5 °F 15.8 °F 64% 30.15 in 10.0 mi South 9.2 mph - N/A   Clear
3:55 AM 26.6 °F 17.5 °F 15.8 °F 64% 30.16 in 10.0 mi South 9.2 mph - N/A   Clear
4:15 AM 30.2 °F 22.6 °F 17.6 °F 60% 30.17 in 10.0 mi SSW 8.1 mph - N/A   Clear
4:55 AM 33.8 °F 25.3 °F 17.6 °F 52% 30.16 in 10.0 mi WSW 11.5 mph - N/A   Clear
5:15 AM 33.8 °F 25.8 °F 17.6 °F 52% 30.16 in 10.0 mi SW 10.4 mph - N/A   Clear
5:55 AM 30.2 °F 21.9 °F 17.6 °F 60% 30.16 in 10.0 mi SW 9.2 mph - N/A   Clear
6:35 AM 30.2 °F 20.8 °F 17.6 °F 60% 30.16 in 10.0 mi SW 11.5 mph - N/A   Clear
6:55 AM 32.0 °F 23.0 °F 17.6 °F 55% 30.15 in 10.0 mi SW 11.5 mph - N/A   Clear
7:15 AM 30.2 °F 21.3 °F 17.6 °F 60% 30.15 in 10.0 mi SW 10.4 mph - N/A   Clear
7:35 AM 30.2 °F 22.6 °F 17.6 °F 60% 30.16 in 10.0 mi SSW 8.1 mph - N/A   Clear
7:55 AM 32.0 °F 23.6 °F 17.6 °F 55% 30.16 in 10.0 mi SW 10.4 mph - N/A   Clear
8:15 AM 33.8 °F 26.4 °F 17.6 °F 52% 30.16 in 10.0 mi SW 9.2 mph - N/A   Partly Cloudy
8:55 AM 37.4 °F 28.9 °F 17.6 °F 45% 30.17 in 10.0 mi West 13.8 mph - N/A   Overcast
9:15 AM 37.4 °F 29.3 °F 19.4 °F 48% 30.17 in 10.0 mi West 12.7 mph - N/A   Overcast
9:35 AM 37.4 °F 28.9 °F 19.4 °F 48% 30.17 in 10.0 mi West 13.8 mph - N/A   Mostly Cloudy
9:55 AM 37.4 °F 28.9 °F 19.4 °F 48% 30.18 in 10.0 mi West 13.8 mph - N/A   Clear
10:15 AM 37.4 °F 28.9 °F 19.4 °F 48% 30.18 in 10.0 mi West 13.8 mph 19.6 mph N/A   Clear
10:35 AM 39.2 °F 31.2 °F 19.4 °F 45% 30.19 in 10.0 mi West 13.8 mph - N/A   Clear
10:55 AM 39.2 °F 31.2 °F 19.4 °F 45% 30.18 in 10.0 mi West 13.8 mph - N/A   Clear
11:15 AM 39.2 °F 31.2 °F 21.2 °F 49% 30.18 in 10.0 mi West 13.8 mph - N/A   Clear
11:35 AM 41.0 °F 33.5 °F 21.2 °F 45% 30.18 in 10.0 mi West 13.8 mph - N/A   Clear
12:15 PM 42.8 °F 34.8 °F 21.2 °F 42% 30.17 in 10.0 mi West 17.3 mph 20.7 mph N/A   Clear
12:35 PM 42.8 °F 34.3 °F 21.2 °F 42% 30.16 in 10.0 mi West 19.6 mph 25.3 mph N/A   Clear
12:55 PM 42.8 °F 33.8 °F 23.0 °F 46% 30.16 in 10.0 mi WNW 21.9 mph 26.5 mph N/A   Clear
1:15 PM 44.6 °F 36.6 °F 23.0 °F 43% 30.16 in 10.0 mi WNW 19.6 mph 27.6 mph N/A   Clear
1:35 PM 44.6 °F 36.4 °F 23.0 °F 43% 30.17 in 10.0 mi WNW 20.7 mph 27.6 mph N/A   Clear
2:15 PM 44.6 °F 36.1 °F 21.2 °F 39% 30.17 in 10.0 mi West 21.9 mph 29.9 mph N/A   Clear
2:35 PM 44.6 °F 35.9 °F 23.0 °F 43% 30.18 in 10.0 mi WNW 23.0 mph 28.8 mph N/A   Clear
2:55 PM 42.8 °F 34.8 °F 23.0 °F 46% 30.19 in 10.0 mi West 17.3 mph 24.2 mph N/A   Clear
3:15 PM 42.8 °F 36.6 °F 24.8 °F 49% 30.20 in 10.0 mi WNW 11.5 mph 17.3 mph N/A   Clear
3:35 PM 42.8 °F 35.8 °F 24.8 °F 49% 30.21 in 10.0 mi WNW 13.8 mph 21.9 mph N/A   Clear
3:55 PM 41.0 °F 34.3 °F 24.8 °F 53% 30.22 in 10.0 mi West 11.5 mph 17.3 mph N/A   Clear
4:15 PM 39.2 °F 34.2 °F 24.8 °F 56% 30.22 in 10.0 mi West 6.9 mph - N/A   Clear
4:35 PM 39.2 °F 33.0 °F 24.8 °F 56% 30.23 in 10.0 mi West 9.2 mph - N/A   Clear
4:55 PM 39.2 °F 33.0 °F 24.8 °F 56% 30.23 in 10.0 mi West 9.2 mph - N/A   Clear
5:15 PM 37.4 °F 32.1 °F 24.8 °F 60% 30.24 in 10.0 mi West 6.9 mph - N/A   Clear
5:35 PM 37.4 °F 29.3 °F 26.6 °F 65% 30.24 in 10.0 mi West 12.7 mph - N/A   Clear
5:55 PM 37.4 °F 29.8 °F 24.8 °F 60% 30.24 in 10.0 mi West 11.5 mph - N/A   Clear
6:35 PM 37.4 °F 28.9 °F 24.8 °F 60% 30.24 in 10.0 mi West 13.8 mph 20.7 mph N/A   Clear
6:55 PM 37.4 °F 29.3 °F 24.8 °F 60% 30.25 in 10.0 mi West 12.7 mph - N/A   Clear
7:15 PM 37.4 °F 29.8 °F 24.8 °F 60% 30.26 in 10.0 mi West 11.5 mph - N/A   Clear
7:36 PM 37.4 °F 30.8 °F 24.8 °F 60% 30.26 in 10.0 mi West 9.2 mph - N/A   Clear
7:55 PM 35.6 °F 28.0 °F 24.8 °F 65% 30.28 in 10.0 mi West 10.4 mph - N/A   Clear
8:35 PM 33.8 °F - 24.8 °F 70% 30.30 in 10.0 mi Calm Calm - N/A   Clear
8:55 PM 33.8 °F - 24.8 °F 70% 30.31 in 10.0 mi Calm Calm - N/A   Clear
9:15 PM 33.8 °F 25.8 °F 21.2 °F 60% 30.31 in 10.0 mi WNW 10.4 mph - N/A   Clear
9:35 PM 32.0 °F 23.0 °F 23.0 °F 69% 30.32 in 10.0 mi WNW 11.5 mph - N/A   Clear
9:55 PM 30.2 °F 21.9 °F 21.2 °F 69% 30.32 in 10.0 mi NW 9.2 mph - N/A   Clear
10:16 PM 28.4 °F 19.1 °F 21.2 °F 74% 30.32 in 10.0 mi NNW 10.4 mph - N/A   Clear
10:35 PM 30.2 °F 20.8 °F 21.2 °F 69% 30.32 in 10.0 mi NW 11.5 mph - N/A   Clear
10:55 PM 26.6 °F 16.2 °F 19.4 °F 74% 30.32 in 10.0 mi WNW 11.5 mph - N/A   Clear
11:15 PM 26.6 °F 17.5 °F 19.4 °F 74% 30.33 in 10.0 mi WNW 9.2 mph - N/A   Clear
11:35 PM 24.8 °F 13.4 °F 21.2 °F 86% 30.32 in 10.0 mi WNW 12.7 mph - N/A   Clear
11:55 PM 26.6 °F 16.8 °F 21.2 °F 80% 30.32 in 10.0 mi WNW 10.4 mph - N/A   Clear